General Mariano Escobedo International Airport
MMMY : now visible

Airfield :











YOU CAN JOIN US ON...

 
LOGIN :

Register | Disclaimer

   EN    FR    IT 

 









Legend :    VFR   Marginal VFR   IFR   Intensive IFR   Very Intensive IFR
Visi :
Ceiling :
>= 8 km
>= 3000ft
5 to 8 km
1000 to 3000 ft
1500m to 5 km
500 to 1000 ft
800 to 1500m
200 to 500 ft
< 800m
< 200 ft
Symbols :   Thunderstorms  Fog  Heavy snow  Heavy precipitations  Wind > 20 kt






- Airport Elevation : 1278 ft
- IATA code : MTY


MMMY - General Mariano Escobedo International

CURRENT METAR :
  • 301541Z 14003KT 12SM SKC 17/06 A3035

EXPIRED METARs :
  • 301440Z 14006KT 12SM SKC 16/05 A3034 RMK SLP/// 5//// 9//
  • 301341Z 00000KT 12SM SKC 12/06 A3032

TAF TAF MMMY
Valid from the 30 at 12:00 until the 31 at 18:00 UTC


301158Z 3012/3118 13005KT P6SM SKC TX27/3021Z TN11/3012Z
FM301800 06010KT P6SM SKC
FM310300 12005KT 6SM HZ SKC
TEMPO 3112/3115 3SM BR BKN010
MMFR FIR / North America



MET'MAP, your aeronautical weather chart ! - Copyright ORBIFLY December 2007 - Disclaimer

ORBIFLY MET'MAP TEAM :

Programming & Development : Alexandra Zaïnal
Concept & original design : Baudouin d'Aumeries
Assistance for programming : Marc-Olivier Méhu
Technical & hardware support : Manuel Goepfert

Contact : metmap@orbifly.com




SOURCES & CREDITS :

   NOAA       Earth
Advisory